Ahmedabad, India

8:16 PM IST on February 25, 2018 (GMT +0530)
Ahmedabad

Weather History for VAAH - February, 2013

Change the Weather History Date:

Monday, February 18, 2013

  Actual Average Record
Temperature  
Mean Temperature 69 °F -  
Max Temperature 83 °F 90 °F 99 °F (2017)
Min Temperature 55 °F 63 °F 50 °F (1998)
Cooling Degree Days 4    
Growing Degree Days 19 (Base 50)    
Moisture  
Dew Point 50 °F    
Average Humidity 51    
Maximum Humidity 79    
Minimum Humidity 22    
Precipitation  
Precipitation 0.00 in 0.00 in - ()
Sea Level Pressure  
Sea Level Pressure 29.90 in    
Wind  
Wind Speed 4 mph ()    
Max Wind Speed 12 mph    
Max Gust Speed -    
Visibility 2.9 miles    
Events      
Averages and records for this station are not official NWS values.
T = Trace of Precipitation, MM = Missing Value Source: Averaged Metar Reports

Daily Weather History Graph

Daily Weather History Graph

Search for Another Location

Airport or City:

Trip Planner

Search our weather history database for the weather conditions in past years. The results will help you decide how hot, cold, wet, or windy it might be!

Date:

Astronomy

Feb. 18, 2013 Rise Set
Actual Time 7:09 AM IST 6:37 PM IST
Civil Twilight 6:46 AM IST 7:00 PM IST
Nautical Twilight 6:20 AM IST 7:26 PM IST
Astronomical Twilight 5:54 AM IST 7:52 PM IST
Moon 12:21 PM IST (2/18) 1:08 AM IST (2/18)
Length of Visible Light 12h 13m
Length of Day
11h 27m
First Quarter, 54% of the Moon is Illuminated
Feb 18
First Quarter
Feb 26
Full
Mar 5
Last Quarter
Mar 12
New
Mar 19
First Quarter

Hourly Weather History & Observations

Time (IST) Temp. Dew Point Humidity Pressure Visibility Wind Dir Wind Speed Gust Speed Precip Events Conditions
12:10 AM 62.6 °F 50.0 °F 63% 29.92 in 2.5 mi ENE 4.6 mph - N/A   Haze
12:40 AM 60.8 °F 50.0 °F 68% 29.92 in 2.5 mi NNE 4.6 mph - N/A   Haze
1:10 AM 60.8 °F 51.8 °F 72% 29.89 in 2.5 mi NNE 3.5 mph - N/A   Haze
1:40 AM 60.8 °F 51.8 °F 72% 29.89 in 2.5 mi NE 3.5 mph - N/A   Haze
2:10 AM 60.8 °F 51.8 °F 72% 29.89 in 2.5 mi North 3.5 mph - N/A   Haze
2:30 AM 58 °F 53 °F 79% 29.91 in 1 mi Calm Calm - -   Haze
2:40 AM 59.0 °F 51.8 °F 77% 29.89 in 2.5 mi NNE 3.5 mph - N/A   Haze
3:10 AM 59.0 °F 50.0 °F 72% 29.89 in 2.5 mi NE 3.5 mph - N/A   Haze
3:40 AM 57.2 °F 50.0 °F 77% 29.89 in 2.5 mi NE 5.8 mph - N/A   Haze
4:10 AM 57.2 °F 50.0 °F 77% 29.89 in 2.5 mi NE 4.6 mph - N/A   Haze
4:40 AM 57.2 °F 48.2 °F 72% 29.89 in 2.5 mi ENE 4.6 mph - N/A   Haze
5:10 AM 59.0 °F 48.2 °F 67% 29.89 in 2.5 mi ENE 6.9 mph - N/A   Haze
5:30 AM 61 °F 51 °F 60% 29.91 in 1 mi NE 4.6 mph - -   Haze
5:40 AM 57.2 °F 48.2 °F 72% 29.89 in 2.5 mi ENE 5.8 mph - N/A   Haze
6:10 AM 57.2 °F 48.2 °F 72% 29.89 in 2.5 mi ENE 4.6 mph - N/A   Haze
6:40 AM 57.2 °F 48.2 °F 72% 29.92 in 2.2 mi East 4.6 mph - N/A   Haze
8:30 AM 64 °F 51 °F 52% 29.97 in 2 mi Calm Calm - -   Haze
9:40 AM 69.8 °F 50.0 °F 49% 29.98 in 2.5 mi East 9.2 mph - N/A   Smoke
10:40 AM 75.2 °F 50.0 °F 41% 29.98 in 3.1 mi East 9.2 mph - N/A   Smoke
11:10 AM 77.0 °F 51.8 °F 41% 29.98 in 3.7 mi ENE 6.9 mph - N/A   Unknown
11:30 AM 79 °F 51 °F 26% 29.99 in 2 mi East 6.9 mph - -  
11:40 AM 77.0 °F 50.0 °F 39% 29.98 in 3.7 mi East 11.5 mph - N/A   Unknown
12:40 PM 80.6 °F 50.0 °F 34% 29.92 in 3.7 mi ESE 9.2 mph - N/A   Unknown
1:10 PM 80.6 °F 50.0 °F 34% 29.92 in 5.0 mi ENE 9.2 mph - N/A   Unknown
1:40 PM 82.4 °F 50.0 °F 32% 29.89 in 5.0 mi ENE 10.4 mph - N/A   Unknown
2:10 PM 82.4 °F 48.2 °F 30% 29.89 in 5.0 mi SE 9.2 mph - N/A   Unknown
2:30 PM 82 °F 50 °F 22% 29.91 in 2 mi East 5.8 mph - -  
2:40 PM 82.4 °F 48.2 °F 30% 29.86 in 5.0 mi ESE 6.9 mph - N/A   Unknown
3:10 PM 84.2 °F 50.0 °F 30% 29.83 in 5.0 mi ESE 5.8 mph - N/A   Unknown
4:10 PM 84.2 °F 48.2 °F 29% 29.83 in 5.0 mi East 5.8 mph - N/A   Unknown
4:40 PM 84.2 °F 48.2 °F 29% 29.83 in 5.0 mi East 5.8 mph - N/A   Unknown
5:10 PM 82.4 °F 48.2 °F 30% 29.83 in 5.0 mi ENE 5.8 mph - N/A   Unknown
5:30 PM 81 °F 49 °F 22% 29.88 in 2 mi East 3.5 mph - -  
5:40 PM 82.4 °F 48.2 °F 30% 29.83 in 4.3 mi ENE 6.9 mph - N/A   Unknown
6:10 PM 78.8 °F 48.2 °F 34% 29.83 in 3.7 mi ENE 6.9 mph - N/A   Unknown
7:10 PM 75.2 °F 48.2 °F 38% 29.86 in 2.5 mi NE 3.5 mph - N/A   Smoke
7:40 PM 71.6 °F 48.2 °F 43% 29.86 in 2.5 mi NNE 3.5 mph - N/A   Smoke
8:10 PM 71.6 °F 48.2 °F 43% 29.89 in 2.5 mi NE 3.5 mph - N/A   Smoke
8:30 PM 72 °F 52 °F 39% 29.93 in 2 mi Calm Calm - -  
8:40 PM 69.8 °F 48.2 °F 46% 29.89 in 2.5 mi NE 4.6 mph - N/A   Smoke
9:10 PM 69.8 °F 50.0 °F 49% 29.92 in 2.5 mi NE 3.5 mph - N/A   Smoke
9:40 PM 68.0 °F 48.2 °F 49% 29.92 in 2.5 mi NE 3.5 mph - N/A   Smoke
10:10 PM 66.2 °F 51.8 °F 60% 29.92 in 2.5 mi Calm Calm - N/A   Smoke
10:40 PM 68.0 °F 48.2 °F 49% 29.92 in 2.5 mi NE 3.5 mph - N/A   Smoke
11:10 PM 66.2 °F 50.0 °F 56% 29.92 in 2.5 mi NNE 3.5 mph - N/A   Smoke
11:30 PM 63 °F 54 °F 63% 29.94 in 2 mi Calm Calm - -  
11:40 PM 62.6 °F 50.0 °F 63% 29.92 in 2.5 mi NE 3.5 mph - N/A   Haze